TimeCDT,TemperatureF,Dew PointF,Humidity,Sea Level PressureIn,VisibilityMPH,Wind Direction,Wind SpeedMPH,Gust SpeedMPH,PrecipitationIn,Events,Conditions,WindDirDegrees,DateUTC
12:30 AM,58.1,48.9,71,29.89,10.0,South,5.8,-,N/A,,Clear,170,2012-10-22 05:30:00
12:50 AM,58.1,49.1,72,29.89,10.0,South,5.8,-,N/A,,Clear,170,2012-10-22 05:50:00
1:30 AM,58.5,49.5,72,29.89,10.0,South,5.8,-,N/A,,Clear,170,2012-10-22 06:30:00
1:50 AM,58.1,49.5,73,29.89,10.0,North,4.6,-,N/A,,Scattered Clouds,350,2012-10-22 06:50:00
2:50 AM,58.5,50.4,74,29.89,10.0,Calm,Calm,-,N/A,,Overcast,0,2012-10-22 07:50:00
3:10 AM,58.3,50.2,74,29.89,10.0,East,3.5,-,N/A,,Mostly Cloudy,80,2012-10-22 08:10:00
3:50 AM,57.0,49.8,77,29.88,10.0,East,3.5,-,N/A,,Scattered Clouds,80,2012-10-22 08:50:00
4:50 AM,57.7,50.0,75,29.88,10.0,SE,4.6,-,N/A,,Overcast,130,2012-10-22 09:50:00
5:10 AM,58.1,50.0,74,29.87,10.0,East,4.6,-,N/A,,Overcast,90,2012-10-22 10:10:00
5:30 AM,58.6,50.5,74,29.88,10.0,ESE,4.6,-,N/A,,Overcast,110,2012-10-22 10:30:00
6:10 AM,57.4,50.0,76,29.88,10.0,ENE,3.5,-,N/A,,Overcast,60,2012-10-22 11:10:00
6:30 AM,57.4,50.0,76,29.88,10.0,East,6.9,-,N/A,,Overcast,80,2012-10-22 11:30:00
7:10 AM,58.1,50.4,75,29.88,10.0,East,6.9,-,N/A,,Overcast,90,2012-10-22 12:10:00
7:30 AM,58.3,50.5,75,29.89,10.0,ESE,4.6,-,N/A,,Overcast,110,2012-10-22 12:30:00
9:30 AM,59.2,51.1,74,29.90,10.0,East,4.6,-,N/A,,Overcast,90,2012-10-22 14:30:00
9:50 AM,59.2,51.3,75,29.90,10.0,East,4.6,-,N/A,,Overcast,80,2012-10-22 14:50:00
10:10 AM,58.6,52.0,79,29.89,5.0,ENE,4.6,-,0.01,Rain-Thunderstorm,Light Thunderstorms and Rain,60,2012-10-22 15:10:00
10:30 AM,59.0,52.5,79,29.90,10.0,East,4.6,-,0.01,Thunderstorm,Thunderstorm,100,2012-10-22 15:30:00
10:50 AM,59.5,52.9,79,29.89,7.0,East,6.9,-,0.01,Thunderstorm,Thunderstorm,90,2012-10-22 15:50:00
11:30 AM,59.4,53.4,81,29.89,7.0,East,4.6,-,N/A,,Overcast,80,2012-10-22 16:30:00
11:50 AM,60.3,53.8,79,29.90,5.0,NNE,3.5,-,N/A,Rain,Light Rain,20,2012-10-22 16:50:00
12:10 PM,60.4,54.3,80,29.90,7.0,ENE,4.6,-,N/A,Rain,Light Rain,60,2012-10-22 17:10:00
12:30 PM,61.2,54.5,79,29.89,7.0,ENE,6.9,-,N/A,Rain,Light Rain,60,2012-10-22 17:30:00
12:50 PM,61.0,54.5,79,29.89,7.0,East,8.1,-,0.01,Rain,Light Rain,80,2012-10-22 17:50:00
1:10 PM,61.0,54.7,80,29.87,7.0,East,10.4,-,N/A,Rain,Light Rain,90,2012-10-22 18:10:00
1:30 PM,62.4,54.9,76,29.87,10.0,East,4.6,-,N/A,,Overcast,80,2012-10-22 18:30:00
1:50 PM,63.7,55.4,74,29.87,10.0,ESE,8.1,-,N/A,,Overcast,120,2012-10-22 18:50:00
2:10 PM,65.3,55.9,72,29.87,10.0,ESE,9.2,-,N/A,,Mostly Cloudy,110,2012-10-22 19:10:00
2:30 PM,65.1,56.1,73,29.87,7.0,ESE,8.1,-,N/A,Thunderstorm,Overcast,120,2012-10-22 19:30:00
3:10 PM,66.0,56.1,70,29.85,7.0,East,11.5,-,N/A,,Scattered Clouds,80,2012-10-22 20:10:00
3:30 PM,66.9,56.3,69,29.85,7.0,East,9.2,-,N/A,,Clear,80,2012-10-22 20:30:00
3:50 PM,66.6,56.1,69,29.86,7.0,ENE,8.1,-,N/A,,Clear,70,2012-10-22 20:50:00
4:10 PM,66.2,56.3,70,29.87,7.0,East,5.8,-,N/A,,Mostly Cloudy,90,2012-10-22 21:10:00
4:30 PM,66.2,56.3,70,29.87,7.0,East,5.8,-,N/A,,Overcast,80,2012-10-22 21:30:00
4:50 PM,66.2,55.6,69,29.87,10.0,East,9.2,-,N/A,,Overcast,80,2012-10-22 21:50:00
5:10 PM,66.2,55.6,69,29.87,7.0,East,6.9,-,N/A,,Overcast,100,2012-10-22 22:10:00
5:30 PM,65.8,55.4,69,29.88,7.0,ESE,5.8,-,N/A,,Overcast,110,2012-10-22 22:30:00
6:10 PM,64.8,56.3,74,29.89,7.0,SSE,6.9,-,N/A,,Overcast,150,2012-10-22 23:10:00
6:30 PM,64.0,56.3,76,29.89,5.0,SE,4.6,-,N/A,,Haze,140,2012-10-22 23:30:00
6:50 PM,63.5,56.3,77,29.90,7.0,SE,6.9,-,N/A,,Overcast,140,2012-10-22 23:50:00
7:30 PM,63.1,56.5,79,29.90,5.0,ESE,8.1,-,N/A,,Haze,110,2012-10-23 00:30:00
8:30 PM,61.7,57.2,85,29.90,2.5,East,9.2,-,N/A,,Haze,90,2012-10-23 01:30:00
8:50 PM,61.7,57.2,85,29.90,2.5,East,8.1,-,N/A,,Haze,90,2012-10-23 01:50:00
9:10 PM,61.7,57.2,85,29.90,2.5,East,8.1,-,N/A,,Haze,100,2012-10-23 02:10:00
9:50 PM,61.7,57.4,86,29.89,2.0,East,6.9,-,N/A,,Haze,100,2012-10-23 02:50:00
10:30 PM,61.7,57.6,86,29.88,2.5,East,10.4,-,N/A,,Overcast,100,2012-10-23 03:30:00
11:10 PM,61.5,57.4,86,29.87,2.0,ESE,9.2,-,N/A,,Overcast,110,2012-10-23 04:10:00
11:30 PM,61.7,57.7,87,29.87,1.2,East,10.4,-,N/A,,Overcast,100,2012-10-23 04:30:00
11:50 PM,61.5,57.6,87,29.87,1.5,ESE,10.4,-,N/A,,Overcast,110,2012-10-23 04:50:00